Getafe Air Base

Airport
ICAO code: 
LEGT
Summary
ICAO Region: 
EUR
Territory: 
Location: 
,
Serving: 
Madrid
Elevation: 
2031 ft
Coordinates: 
Aerial View: 
40° 17' 38.9" N, 3° 43' 25.799" W
Metar
Observation
LEGT 171730Z 11003KT CAVOK 09/M02 Q1030
Station
Madrid / Getafe
Date/Time
2022-01-17 17:30:00
Wind direction
110°
Wind speed
03 kts
Lowest cloud amount
clouds and visibility OK
Temperature
9°C
Dew point
-2°C
Humidity
45%
QNH
1030 hPa
Weather condition
n/a

Runways

Designator Length Width Surface Rops
05R/23L 920 30 GRE No/No
5/23 2480 60 ASP No/No
Airport map: 
Aerial View: 

SKYbrary Partners:

Safety knowledge contributed by: